EW1786 Weather Reports


Display with metric or nautical units.
time (UTC)temp
F
wind
direction
speed
MPH
gust
MPH
rain 1hr
in
rain 24hr
in
rain mn
in
humidity
%
barometer
mb
20260507190516 64 140 0.0 4.0 0.00 0.00 0.00 66 1010.5
20260507185539 64 117 2.0 5.0 0.00 0.00 0.00 65 1010.4
20260507184516 64 137 1.0 4.0 0.00 0.00 0.00 66 1010.2
20260507183516 65 0.0 1.0 0.00 0.00 0.00 65 1010.1
20260507182516 65 91 0.0 2.0 0.00 0.00 0.00 63 1010.0
20260507181517 66 116 1.0 4.0 0.00 0.00 0.00 63 1010.0
20260507180516 67 84 1.0 4.0 0.00 0.00 0.00 61 1009.8
20260507175537 68 103 1.0 3.0 0.00 0.00 0.00 60 1009.7
20260507174517 69 83 1.0 5.0 0.00 0.00 0.00 57 1009.6
20260507173516 69 74 1.0 4.0 0.00 0.00 0.00 58 1009.5
20260507172516 70 77 2.0 6.0 0.00 0.00 0.00 57 1009.4
20260507171537 70 75 3.0 7.0 0.00 0.00 0.00 56 1009.3
20260507170516 70 87 3.0 6.0 0.00 0.00 0.00 56 1009.4
20260507165516 70 87 3.0 8.0 0.00 0.00 0.00 55 1009.4
20260507164516 71 77 3.0 9.0 0.00 0.00 0.00 53 1009.3
20260507163518 71 71 4.0 7.0 0.00 0.00 0.00 50 1009.2
20260507162518 71 82 2.0 8.0 0.00 0.00 0.00 49 1009.2
20260507161518 72 86 2.0 7.0 0.00 0.00 0.00 48 1009.3
20260507160518 72 64 4.0 8.0 0.00 0.00 0.00 49 1009.3
20260507155518 72 74 2.0 6.0 0.00 0.00 0.00 49 1009.4
20260507154538 71 87 4.0 8.0 0.00 0.00 0.00 50 1009.4
20260507153519 70 84 3.0 5.0 0.00 0.00 0.00 51 1009.4
20260507152518 71 85 2.0 6.0 0.00 0.00 0.00 51 1009.6
20260507151539 71 72 2.0 5.0 0.00 0.00 0.00 51 1009.7
20260507150518 71 69 1.0 9.0 0.00 0.00 0.00 51 1009.7
20260507145519 72 76 4.0 8.0 0.00 0.00 0.00 50 1009.7
20260507144518 73 83 3.0 9.0 0.00 0.00 0.00 48 1009.7
20260507143518 74 60 2.0 4.0 0.00 0.00 0.00 47 1009.7
20260507142518 72 60 2.0 6.0 0.00 0.00 0.00 48 1009.7
20260507141518 71 131 1.0 9.0 0.00 0.00 0.00 49 1009.7
20260507140517 73 81 4.0 7.0 0.00 0.00 0.00 43 1009.7
20260507135518 74 80 2.0 5.0 0.00 0.00 0.00 43 1009.7
20260507134517 73 60 1.0 7.0 0.00 0.00 0.00 43 1009.7
20260507133518 73 47 2.0 5.0 0.00 0.00 0.00 43 1009.7
20260507132538 73 69 2.0 4.0 0.00 0.00 0.00 41 1009.8
20260507131518 73 95 3.0 6.0 0.00 0.00 0.00 40 1010.0
20260507130518 73 357 1.0 3.0 0.00 0.00 0.00 42 1009.9
20260507125517 72 253 1.0 3.0 0.00 0.00 0.00 43 1010.0
20260507124540 72 117 3.0 8.0 0.00 0.00 0.00 41 1010.0
20260507123519 72 29 2.0 4.0 0.00 0.00 0.00 41 1010.1
20260507122518 72 81 4.0 7.0 0.00 0.00 0.00 40 1010.2
20260507121517 72 72 3.0 8.0 0.00 0.00 0.00 41 1010.2
20260507120518 71 41 3.0 7.0 0.00 0.00 0.00 43 1010.3
20260507115517 70 143 2.0 6.0 0.00 0.00 0.00 46 1010.3
20260507114520 70 80 2.0 5.0 0.00 0.00 0.00 47 1010.4
20260507113517 71 40 2.0 5.0 0.00 0.00 0.00 46 1010.5
20260507112518 70 312 2.0 7.0 0.00 0.00 0.00 46 1010.5
20260507111517 71 349 3.0 5.0 0.00 0.00 0.00 47 1010.6
20260507110517 71 41 3.0 7.0 0.00 0.00 0.00 48 1010.7
20260507105517 70 348 2.0 7.0 0.00 0.00 0.00 47 1010.8
20260507104517 70 84 2.0 6.0 0.00 0.00 0.00 47 1010.8
20260507103540 70 5 1.0 3.0 0.00 0.00 0.00 47 1010.9
20260507102518 71 359 1.0 4.0 0.00 0.00 0.00 48 1010.9
20260507101539 70 55 1.0 5.0 0.00 0.00 0.00 48 1011.0
20260507100538 70 314 1.0 3.0 0.00 0.00 0.00 49 1011.0
20260507095520 69 268 0.0 4.0 0.00 0.00 0.00 51 1011.1
20260507094518 68 15 1.0 6.0 0.00 0.00 0.00 51 1011.1
20260507093518 69 15 2.0 4.0 0.00 0.00 0.00 49 1011.2
20260507092518 67 213 0.0 3.0 0.00 0.00 0.00 52 1011.2
20260507091517 67 20 2.0 4.0 0.00 0.00 0.00 51 1011.2
20260507090519 68 11 2.0 4.0 0.00 0.00 0.00 50 1011.2
20260507090253 68 10 3.0 4.0 0.00 0.00 0.00 50 1011.2
20260507085517 66 14 1.0 4.0 0.00 0.00 0.00 52 1011.1
20260507084517 66 359 2.0 6.0 0.00 0.00 0.00 53 1011.0
20260507083516 65 234 1.0 4.0 0.00 0.00 0.00 52 1011.0
20260507082517 66 13 2.0 4.0 0.00 0.00 0.00 54 1010.9
20260507081516 65 44 1.0 3.0 0.00 0.00 0.00 56 1010.9
20260507080517 65 271 0.0 1.0 0.00 0.00 0.00 58 1010.8
20260507075537 65 271 0.0 1.0 0.00 0.00 0.00 54 1010.8
20260507074516 65 271 0.0 1.0 0.00 0.00 0.00 56 1010.8
20260507073516 64 271 0.0 2.0 0.00 0.00 0.00 59 1010.8
20260507072517 64 252 0.0 1.0 0.00 0.00 0.00 60 1010.7
20260507071516 63 251 0.0 1.0 0.00 0.00 0.00 62 1010.7
20260507070516 62 233 0.0 1.0 0.00 0.00 0.00 65 1010.5
20260507065619 61 233 1.0 2.0 0.00 0.00 0.00 66 1010.5
20260507064516 61 262 0.0 1.0 0.00 0.00 0.00 67 1010.5
20260507063517 61 258 0.0 2.0 0.00 0.00 0.00 66 1010.4
20260507062517 60 271 0.0 1.0 0.00 0.00 0.00 68 1010.2
20260507061517 59 243 1.0 2.0 0.00 0.00 0.00 66 1010.1
20260507060516 58 236 1.0 2.0 0.00 0.00 0.00 71 1010.0
20260507055517 58 252 1.0 1.0 0.00 0.00 0.00 73 1010.0
20260507054516 57 0.0 1.0 0.00 0.00 0.00 73 1009.9
20260507053516 56 252 0.0 2.0 0.00 0.00 0.00 72 1009.8
20260507052518 54 227 1.0 2.0 0.00 0.00 0.00 78 1009.7
20260507051518 53 258 1.0 2.0 0.00 0.00 0.00 80 1009.6
20260507050519 53 238 0.0 2.0 0.00 0.00 0.00 81 1009.5
20260507045519 53 236 0.0 1.0 0.00 0.00 0.00 81 1009.5
20260507044522 52 236 1.0 1.0 0.00 0.00 0.00 81 1009.3
20260507043518 52 236 0.0 1.0 0.00 0.00 0.00 84 1009.2
20260507042518 52 236 0.0 1.0 0.00 0.00 0.00 82 1009.1
20260507041517 52 236 0.0 2.0 0.00 0.00 0.00 81 1009.1
20260507040538 53 253 1.0 1.0 0.00 0.00 0.00 79 1009.0
20260507035539 53 242 1.0 2.0 0.00 0.00 0.00 79 1008.9
20260507034518 52 237 1.0 2.0 0.00 0.00 0.00 82 1008.8
20260507033518 53 0.0 1.0 0.00 0.00 0.00 80 1008.8
20260507032519 54 257 0.0 1.0 0.00 0.00 0.00 77 1008.8
20260507031518 55 233 1.0 3.0 0.00 0.00 0.00 76 1008.7
20260507030538 54 235 1.0 2.0 0.00 0.00 0.00 77 1008.8
20260507025519 55 268 0.0 2.0 0.00 0.00 0.00 76 1008.8
20260507024538 54 221 1.0 2.0 0.00 0.00 0.00 77 1008.7
20260507023518 54 221 1.0 2.0 0.00 0.00 0.00 77 1008.7
20260507022518 55 259 0.0 1.0 0.00 0.00 0.00 76 1008.6
20260507021518 56 244 0.0 6.0 0.00 0.00 0.00 73 1008.6
20260507020518 56 241 1.0 3.0 0.00 0.00 0.00 73 1008.5
20260507015538 56 243 1.0 5.0 0.00 0.00 0.00 75 1008.6
20260507014519 55 225 3.0 4.0 0.00 0.00 0.00 79 1008.5
20260507013518 55 242 0.0 2.0 0.00 0.00 0.00 78 1008.4
20260507012518 55 236 1.0 4.0 0.00 0.00 0.00 79 1008.3
20260507011519 54 230 3.0 4.0 0.00 0.00 0.00 80 1008.3
20260507010538 54 256 0.0 1.0 0.00 0.00 0.00 80 1008.3
20260507005518 56 261 0.0 5.0 0.00 0.00 0.00 77 1008.3
20260507004519 57 230 1.0 4.0 0.00 0.00 0.00 74 1008.3
20260507003518 58 229 2.0 3.0 0.00 0.00 0.00 69 1008.4
20260507002539 57 224 2.0 3.0 0.00 0.00 0.00 72 1008.5
20260507001517 57 239 1.0 2.0 0.00 0.00 0.00 70 1008.6
20260507000518 58 240 1.0 2.0 0.00 0.00 0.00 70 1008.6
20260506235517 58 235 1.0 2.0 0.00 0.00 0.00 70 1008.7
20260506234620 58 230 1.0 2.0 0.00 0.00 0.00 70 1008.6
20260506233517 57 239 1.0 3.0 0.00 0.00 0.00 70 1008.6
20260506232518 57 242 0.0 2.0 0.00 0.00 0.00 72 1008.7
20260506231538 58 265 0.0 2.0 0.00 0.00 0.00 68 1008.8
20260506230518 59 225 0.0 3.0 0.00 0.00 0.00 66 1008.8
20260506225518 59 227 2.0 4.0 0.00 0.00 0.00 66 1008.8
20260506224518 58 230 3.0 4.0 0.00 0.00 0.00 67 1008.7
20260506223538 58 230 2.0 3.0 0.00 0.00 0.00 69 1008.6
20260506222518 58 228 2.0 3.0 0.00 0.00 0.00 69 1008.5
20260506221518 58 237 1.0 2.0 0.00 0.00 0.00 69 1008.4
20260506220518 60 258 1.0 3.0 0.00 0.00 0.00 66 1008.5
20260506215520 61 226 2.0 5.0 0.00 0.00 0.00 60 1008.4
20260506214520 61 218 4.0 5.0 0.00 0.00 0.00 60 1008.4
20260506213518 61 218 3.0 5.0 0.00 0.00 0.00 61 1008.3
20260506212518 59 223 3.0 5.0 0.00 0.00 0.00 64 1008.3
20260506211518 60 234 1.0 3.0 0.00 0.00 0.00 65 1008.4
20260506210519 62 221 2.0 6.0 0.00 0.00 0.00 58 1008.3
20260506205618 62 219 4.0 7.0 0.00 0.00 0.00 57 1008.1
20260506204518 62 218 4.0 7.0 0.00 0.00 0.00 57 1008.0
20260506203517 62 217 4.0 6.0 0.00 0.00 0.00 57 1008.1
20260506202518 61 222 3.0 5.0 0.00 0.00 0.00 57 1008.0
20260506201538 61 227 3.0 4.0 0.00 0.00 0.00 56 1007.8
20260506200517 62 222 3.0 5.0 0.00 0.00 0.00 55 1007.9
20260506195517 62 220 3.0 5.0 0.00 0.00 0.00 56 1007.8
20260506194517 62 220 4.0 5.0 0.00 0.00 0.00 55 1007.6
20260506193519 62 222 3.0 5.0 0.00 0.00 0.00 55 1007.5
20260506192518 61 219 3.0 6.0 0.00 0.00 0.00 57 1007.4
20260506191517 61 207 2.0 3.0 0.00 0.00 0.00 60 1007.2